#timestamp,LO_Frequency,Hit 
1504882815.3,286046998.6,N
1504882835.2,286046999.1,N
1504882855.9,286046997.8,N
1504882875.7,286046994.2,N
1504882895.6,286046991.3,N
1504882915.4,286046988.7,N
1504882935.2,286046992.9,N
1504882955.0,286046991.9,N
1504882956.0,286046991.9,N
1504882975.8,286046990.5,N
1504882995.6,286046990.7,N
1504883015.4,286046992.9,N
1504883035.3,286046992.8,N
1504883055.1,286046988.6,P
1504883075.9,286046992.9,N
1504883095.7,286046991.9,N
1504883115.5,286046991.8,P
1504883135.4,286047005.4,P
1504883155.2,286047005.2,N
1504883175.0,286047002.9,N
1504883175.9,286047002.9,N
1504883195.8,286047003.4,N
1504883215.6,286047005.3,N
1504883235.4,286047007.2,N
1504883255.2,286047001.7,N
1504883275.1,286047002.7,N
1504883276.0,286047002.7,N
1504883295.8,286047000.9,N
1504883315.6,286046999.0,N
1504883335.5,286046996.7,N
1504883355.3,286046996.8,N
1504883375.1,286046998.9,N
1504883395.9,286047002.4,N
1504883415.7,286046998.2,N
1504883435.5,286046998.9,N
1504883455.4,286047000.4,N
1504883475.2,286046999.8,N
1504883495.0,286047001.8,N
1504883495.9,286047001.8,N
1504883515.8,286046998.7,N
1504883535.6,286047002.2,N
1504883555.4,286047000.5,N
1504883575.2,286047002.0,N
1504883595.1,286047003.2,N
1504883596.0,286047003.2,N
1504883615.8,286047004.8,N
1504883635.6,286047006.4,N
1504883655.5,286047007.4,N
1504883675.3,286047004.5,N
1504883695.1,286047007.5,N
1504883715.9,286046999.9,N
1504883735.7,286046999.9,N
1504883755.5,286047003.3,N
1504883775.4,286047001.6,N
1504883795.2,286047000.9,N
1504883815.0,286046996.5,N
1504883815.9,286046996.5,N
1504883835.8,286047001.0,N
1504883855.6,286047000.5,N
1504883875.4,286046999.2,N
1504883895.3,286046998.7,N
1504883915.1,286046999.2,N
1504883916.0,286046999.2,N
1504883935.8,286046999.5,N
1504883955.7,286046997.0,N
1504883975.5,286046995.2,N
1504883995.3,286046999.5,N
1504884015.1,286047002.7,N
1504884035.9,286047001.3,N
1504884055.7,286047001.6,N
1504884075.5,286047004.4,N
1504884095.4,286047005.6,N
1504884115.2,286046999.8,N
1504884135.0,286047004.2,N
1504884135.9,286047004.2,N
1504884155.8,286047000.0,N
1504884175.6,286047000.3,N
1504884195.4,286046999.8,N
1504884215.3,286047003.7,N
1504884235.1,286047005.7,N
1504884236.0,286047005.7,N
1504884255.8,286047005.4,N
1504884275.7,286047003.1,N
1504884295.5,286046999.9,N
1504884315.3,286047000.6,N
1504884335.2,286046998.6,N
1504884355.9,286046999.7,N
1504884375.7,286047002.5,N
1504884395.5,286047002.1,N
1504884415.4,286046999.9,N
1504884435.2,286047000.0,N
1504884455.0,286047001.9,N
1504884455.9,286047001.9,N
1504884475.8,286047001.4,N
1504884495.6,286047001.3,N
1504884515.4,286047004.0,N
1504884535.3,286047002.3,N
1504884555.1,286046999.2,N
1504884575.8,286046999.9,N
1504884595.7,286046996.8,N
1504884615.5,286046994.3,N
1504884635.3,286046994.0,N
1504884655.2,286046994.7,N
1504884675.9,286046997.6,N
1504884695.7,286046995.3,N
1504884715.6,286046993.6,N
1504884735.4,286046990.2,N
1504884755.2,286046991.3,N
1504884775.0,286046994.1,N
1504884776.0,286046994.1,N
1504884795.8,286046996.3,N
1504884815.6,286046994.7,N
1504884835.4,286046990.5,N
1504884855.3,286046991.0,N
1504884875.1,286046994.6,N
1504884895.8,286046995.2,N
1504884915.7,286046997.2,N
1504884935.5,286046998.0,N
1504884955.3,286046996.8,N
1504884975.2,286046996.6,N
1504884995.9,286046998.2,N
1504885015.7,286046999.6,N
1504885035.6,286046997.8,N
1504885055.4,286046997.3,N
1504885075.2,286046999.2,N
1504885095.1,286046996.6,N
1504885096.0,286046996.6,N
1504885115.8,286046996.2,N
1504885135.6,286046992.2,P
1504885155.5,286046993.7,P
1504885175.3,286046994.8,P
1504885195.1,286046997.8,N
1504885215.9,286047000.8,N
1504885235.7,286046998.9,N
1504885255.5,286046999.3,N
1504885275.3,286047000.2,N
1504885295.2,286047001.3,N
1504885315.0,286047003.9,N
1504885315.9,286047003.9,N
1504885335.7,286047004.3,N
1504885355.6,286047002.3,N
1504885375.4,286046999.7,N
1504885395.2,286047001.1,N
1504885415.1,286046998.1,N
1504885416.0,286046998.1,N
1504885435.8,286047000.4,N
1504885455.6,286047001.8,N
1504885475.5,286047002.9,N
1504885495.3,286047003.7,N
1504885515.1,286047003.6,N
1504885535.9,286047002.7,N
1504885555.7,286046999.9,N
1504885575.5,286046998.2,N
1504885595.3,286047000.9,N
1504885615.2,286046998.5,N
1504885635.0,286047000.9,N
1504885635.9,286047000.9,N
1504885655.7,286047000.7,N
1504885675.6,286047000.2,N
1504885695.4,286047002.3,N
1504885715.2,286047002.7,N
1504885735.1,286047002.0,N
1504885736.0,286047002.0,N
1504885755.8,286046998.1,N
1504885775.6,286047002.6,N
1504885795.5,286047001.2,N
1504885815.3,286046999.6,N
1504885835.1,286047000.8,N
1504885855.9,286047002.5,N
1504885875.7,286047001.5,N
1504885895.5,286047004.4,N
1504885915.4,286047002.0,N
1504885935.2,286047002.8,N
1504885955.0,286047000.4,N
1504885955.9,286047000.4,N
1504885975.8,286046997.0,N
1504885995.6,286046999.2,N
1504886015.4,286047000.2,N
1504886035.2,286047002.1,N
1504886055.1,286047001.9,N
1504886056.0,286047001.9,N
1504886075.8,286046999.1,N
1504886095.6,286046997.7,N
1504886115.5,286046993.8,P
1504886135.3,286046990.8,N
1504886155.1,286046989.5,N
1504886175.9,286046988.9,N
1504886195.7,286046994.2,N
1504886215.5,286046995.2,N
1504886235.4,286046997.2,N
1504886255.2,286046998.3,N
1504886275.0,286046998.9,N
1504886275.9,286046998.9,N
1504886295.8,286046998.3,N
1504886315.6,286046996.8,N
1504886335.4,286046999.2,N
1504886355.3,286047000.2,N
1504886375.1,286047000.6,N
1504886376.0,286047000.6,N
1504886395.8,286046999.9,N
